Погода в Вязьме

Погода в Вязьме : погода сейчас, прогноз погоды и архив. Всё, что Вы хотите узнать о погоде в Вязьме!

Поиск расширенной информации на нашем сайте:

Другие новости

Новости СМИ2

Главная страница сайта

Новости сайта

03.07.2017

Напоминаем, что на нашем специализированном сайте Метеоцентр.Азия вы можете получить высокодетализированные автоматические прогнозы погоды по пунктам России, СНГ и мира в авиационном формате (включающие направление и скорость ветра, видимость, явления погоды, количество и форму облачности, нижнюю и верхнюю границу облачности).


Погода в Вязьме - сегодня

Время (UTC), дата Ветер
(°,м/с) 
Видим.   Явления Облачность Т
(°С)
Тd
(°С)
f(%) Тe
(°С)
Pmin
(гПа)
dP
(гПа)
Po
(мм)
O2
(г/м3)
Тmin Tmax R s Состояние
почвы
00 18.11.17 230 (ЮЗ) 4000 м  дымка  10/10 420 м 
[Sc]
+1.1 -0 92 -1  1018.3  -0.2  741  297           
03 18.11.17 250 (З) 4000 м  дымка  10/10 400 м 
[Sc]
+1 +0 93 1018.3  741  297  +0.9         
06 18.11.17 200 (Ю) 4000 м  дымка  10/10 570 м 
[Sc]
+0.8 -0 94 1018.5  0.2  741  298  +0.8         
09 18.11.17 220 (ЮЗ) 10 км    10/10 600 м 
[Sc]
+2 -1.7 76 +1  1018.4  741  296           
12 18.11.17 240 (ЮЗ) 10 км    10/10 630 м 
[Sc]
+1.9 -2.3 74 1017.1  -1.3  740  296           
15 18.11.17 180 (Ю) 10 км    10/10 700 м 
[Sc]
+1.3 -0.6 87 +1  1016.1  -1  739  296           
18 18.11.17 180 (Ю) 4000 м  дымка{снег}  10/10 270 м 
[St]
+1.1 +0.6 96 1014.9  -1.1  738  296    +2  0.0     
21 18.11.17 170 (Ю) 4000 м  слаб. снег  10/8 270 м средняя 
[Frnb|As op]
+0.3 +0.2 99 1013.6  -1.3  737  297           
00 19.11.17 150 (ЮВ) 4000 м  слаб. снег  10/8 240 м средняя 
[Frnb|As op]
+0.2 +0.1 99 -1  1012.1  -1.5  736  296           
03 19.11.17 160 (Ю) 4000 м  слаб. снег  10/8 210 м средняя 
[Frnb|As op]
+0.1 +0.1 100 -1  1010.4  -1.7  735  296  +0.1       
06 19.11.17 170 (Ю) 4000 м  слаб. снег  10/8 210 м средняя 
[Frnb|As op]
+0.1 +0 99 -1  1009.6  -0.7  734  296  +0.1    равномерный
мокрый или
старый снег
100% 
09 19.11.17 170 (Ю) 4000 м  слаб. снег  10/8 210 м средняя 
[Frnb|As op]
+0.3 +0.2 99 1008.8  -0.8  734  295           
12 19.11.17 150 (ЮВ) 4000 м  слаб. снег  10/8 210 м средняя 
[St|As op]
+0.5 +0.3 99 1007.4  -1.3  733  295           
15 19.11.17 160 (Ю) 4000 м  слаб. снег  10/8 210 м средняя 
[Frnb|As op]
+0.4 +0.2 99 -1  1006.8  -0.6  732  295         
18 19.11.17 200 (Ю) 2000 м  дымка{снег}  10/10 60 м 
[St]
+0.4 +0.4 100 -1  1006.4  -0.4  732  294    +0.6     
21 19.11.17 230 (ЮЗ) 4000 м  дымка  10/10 360 м 
[Sc]
+0.6 -0.1 95 -2  1007.4  733  295           
00 20.11.17 220 (ЮЗ) 4000 м  дымка  10/10 450 м 
[Sc]
+0.5 -0.5 93 -1  1008.1  0.7  733  295           
03 20.11.17 200 (Ю) 4000 м  дымка  10/0 средняя 
[Ac und]
+0.1 -0.6 95 -2  1009.3  1.1  734  296  -0.1    0.3     
06 20.11.17 180 (Ю) 4000 м  дымка  10/0 средняя 
[Ac und]
+0.1 -1 92 -1  1010.6  1.2  735  296  -0.1      равномерный
мокрый или
старый снег
100% 
09 20.11.17 160 (Ю) 4000 м  дымка  8/0 средняя 
[Ac trans]
+0.6 -0.5 92 -1  1011.3  0.8  736  296           
12 20.11.17 150 (ЮВ) 10 км    9/0 средняя 
[Ac trans]
+1.3 -0.2 90 +1  1011.2  736  295           
15 20.11.17 150 (ЮВ) 4000 м  дымка  10/0 средняя 
[Ac und]
+0.1 -0.5 96 +1  1011.4  736  296           
18 20.11.17 100 (В) 4000 м  дымка  10/0 средняя 
[Ac und]
-1.1 -1.2 99 -1  1011.5  736  298    +1.4       
21 20.11.17 320 (СЗ) 1000 м  дымка  10/10 100 м 
[St]
-1.5 -1.5 100 -1  1010.6  -0.9  735  298           
00 21.11.17 050 (СВ) 2000 м  дымка  10/10 100 м 
[St]
-1.1 -1.1 100 -1  1009.8  -0.8  734  297           
Время (UTC), дата Ветер
(°,м/с) 
Видим.   Явления Облачность Т
(°С)
Тd
(°С)
f(%) Тe
(°С)
Pmin
(гПа)
dP
(гПа)
Po
(мм)
O2
(г/м3)
Тmin Tmax R s Состояние
почвы

Для получения пояснительной информации подведите курсор к названию столбца.

ПОГОДА в Вязьме - архив

Всё, что Вы хотите узнать о погоде в Вязьме - удобно и подробно!

Выберите нужную дату (начиная с 1 января 2015* года) и нажмите кнопку "Найти".
Будут отображены архивные сводки погоды по пункту Вязьма, начиная с указанной даты.


Отображать данные в формате CSV (для использования в таблицах Excel)


Внимание! Наш архив погоды предназначен исключительно для личного некоммерческого использования в познавательных целях. Если Вам необходимы официальные справки о состоянии погоды (для производственных, юридических, коммерческих и т.п. целей), обращайтесь в органы Росгидромета.

*Примечание: данная дата относится к архиву по метеостанциям СССР (Россия, СНГ, Балтия).
Архив по метеостанциям Зарубежной Европы и Азии (кроме Китая) хранится 10 дней, по другим регионам земного шара (Китай, Африка, Америка, Австралия, Океания) - 1 день.

Вязьма - район местоположения метеостанции


Название, широта, долгота, высота метеостанции:
Вязьма 55.2°ш. 34.4°д. 251 м над ур. моря [Российская Федерация]

Дополнительная информация

В oтличие oт бoльшинства пoгoдных сайтoв мы публикуем пoдрoбную метеoинфoрмацию в детальнoм прoфессиoнальнoм фoрмате.

Характеристики температуры и влажнoсти вoздуха измеряются на высoте 2 м в тени вдали oт зданий и деревьев.
Скoрoсть ветра измеряется на высoте 10 м (на урoвне рoста челoвека скoрoсть ветра ниже в 1.5-2 раза). Если метеoстанция нахoдится в гoрoде или в лесу, тo скoрoсть ветра занижена на 2-4 м/с пo сравнению с oткрытым местoм. Скoрoсть ветра над акватoриями крупных рек и oзёр, а также на вершинах хoлмoв на 2-5 м/с выше, чем в oбычных услoвиях.
Атмoсфернoе давление в разных тoчках местнoсти мoжет значительнo oтличаться oт давления на метеoстанции, в зависимoсти oт услoвий рельефа (при пoдъёме на 10 м давление пoнижается примернo на 1 мм рт.ст.).